| time (UTC) | temp F | wind direction | speed MPH | gust MPH | rain 1hr in | rain 24hr in | rain mn in | humidity % | barometer mb |
| 20260901040005 | 61 | 86 | 0.0 | 0.0 | 0.00 | 0.00 | 0.00 | 97 | 1011.4 |
| 20260901035006 | 61 | 338 | 0.0 | 0.0 | 0.00 | 0.00 | 0.00 | 97 | 1011.3 |
| 20260901034006 | 62 | 6 | 0.0 | 0.0 | 0.00 | 0.00 | 0.00 | 96 | 1011.3 |
| 20260901033005 | 64 | 22 | 4.0 | 7.0 | 0.00 | 0.00 | 0.00 | 96 | 1011.3 |
| 20260901032006 | 64 | 35 | 4.0 | 7.0 | 0.00 | 0.00 | 0.00 | 96 | 1011.3 |
| 20260901031006 | 63 | 45 | 1.0 | 5.0 | 0.00 | 0.00 | 0.00 | 95 | 1011.3 |
| 20260901030006 | 64 | 67 | 0.0 | 2.0 | 0.00 | 0.00 | 0.00 | 94 | 1011.5 |
| 20260901025005 | 63 | 46 | 0.0 | 0.0 | 0.00 | 0.00 | 0.00 | 94 | 1011.5 |
| 20260901024006 | 63 | 81 | 0.0 | 1.0 | 0.00 | 0.00 | 0.00 | 95 | 1011.5 |
| 20260901023005 | 62 | 68 | 0.0 | 0.0 | 0.00 | 0.00 | 0.00 | 92 | 1011.6 |
| 20260901022005 | 62 | 166 | 0.0 | 0.0 | 0.00 | 0.00 | 0.00 | 92 | 1011.8 |
| 20260901021005 | 63 | 225 | 0.0 | 0.0 | 0.00 | 0.00 | 0.00 | 91 | 1011.8 |
| 20260901020005 | 63 | 270 | 0.0 | 6.0 | 0.00 | 0.00 | 0.00 | 90 | 1011.8 |
| 20260901015005 | 65 | 353 | 5.0 | 9.0 | 0.00 | 0.00 | 0.00 | 89 | 1011.8 |
| 20260901014005 | 65 | 22 | 9.0 | 10.0 | 0.00 | 0.00 | 0.00 | 88 | 1011.8 |
| 20260901013007 | 65 | 31 | 7.0 | 12.0 | 0.00 | 0.00 | 0.00 | 89 | 1011.8 |
| 20260901012005 | 65 | 22 | 7.0 | 9.0 | 0.00 | 0.00 | 0.00 | 90 | 1011.9 |
| 20260901011006 | 65 | 21 | 7.0 | 9.0 | 0.00 | 0.00 | 0.00 | 89 | 1012.1 |
| 20260901005005 | 65 | 23 | 6.0 | 10.0 | 0.00 | 0.00 | 0.00 | 89 | 1012.4 |
| 20260901004005 | 65 | 49 | 6.0 | 10.0 | 0.00 | 0.00 | 0.00 | 89 | 1012.4 |
| 20260901003005 | 65 | 7 | 7.0 | 10.0 | 0.00 | 0.00 | 0.00 | 89 | 1012.4 |
| 20260901001006 | 65 | 358 | 8.0 | 14.0 | 0.00 | 0.00 | 0.00 | 89 | 1012.3 |
| 20260901000005 | 65 | 33 | 12.0 | 15.0 | 0.00 | 0.00 | 0.00 | 88 | 1012.3 |
| 20260831235006 | 66 | 41 | 7.0 | 12.0 | 0.00 | 0.00 | 0.00 | 88 | 1012.5 |
| 20260831234006 | 66 | 12 | 9.0 | 15.0 | 0.00 | 0.00 | 0.00 | 87 | 1012.5 |
| 20260831233008 | 66 | 335 | 9.0 | 13.0 | 0.00 | 0.00 | 0.00 | 87 | 1012.5 |
| 20260831232005 | 66 | 7 | 10.0 | 16.0 | 0.00 | 0.00 | 0.00 | 86 | 1012.5 |
| 20260831231011 | 66 | 37 | 12.0 | 15.0 | 0.00 | 0.00 | 0.00 | 86 | 1012.5 |
| 20260831230007 | 66 | 35 | 10.0 | 14.0 | 0.00 | 0.00 | 0.00 | 86 | 1012.4 |
| 20260831225006 | 66 | 36 | 10.0 | 14.0 | 0.00 | 0.00 | 0.00 | 85 | 1012.6 |
| 20260831224005 | 66 | 22 | 12.0 | 17.0 | 0.00 | 0.00 | 0.00 | 84 | 1012.6 |
| 20260831223006 | 66 | 34 | 12.0 | 16.0 | 0.00 | 0.00 | 0.00 | 84 | 1013.0 |
| 20260831222005 | 66 | 8 | 13.0 | 17.0 | 0.00 | 0.00 | 0.00 | 84 | 1013.0 |
| 20260831221005 | 66 | 22 | 12.0 | 18.0 | 0.00 | 0.00 | 0.00 | 84 | 1013.0 |
| 20260831220005 | 66 | 22 | 15.0 | 16.0 | 0.00 | 0.00 | 0.00 | 84 | 1013.0 |
| 20260831215009 | 67 | 32 | 12.0 | 16.0 | 0.00 | 0.00 | 0.00 | 83 | 1013.1 |
| 20260831214006 | 67 | 347 | 9.0 | 18.0 | 0.00 | 0.00 | 0.00 | 82 | 1013.1 |
| 20260831213005 | 67 | 12 | 10.0 | 16.0 | 0.00 | 0.00 | 0.00 | 81 | 1012.9 |
| 20260831212005 | 67 | 39 | 11.0 | 17.0 | 0.00 | 0.00 | 0.00 | 80 | 1013.0 |
| 20260831211005 | 67 | 354 | 13.0 | 20.0 | 0.00 | 0.00 | 0.00 | 78 | 1013.0 |
| 20260831210005 | 68 | 22 | 15.0 | 17.0 | 0.00 | 0.00 | 0.00 | 75 | 1012.8 |
| 20260831205005 | 68 | 22 | 8.0 | 16.0 | 0.00 | 0.00 | 0.00 | 75 | 1012.6 |
| 20260831204005 | 68 | 18 | 11.0 | 15.0 | 0.00 | 0.00 | 0.00 | 75 | 1012.6 |
| 20260831203006 | 68 | 35 | 6.0 | 9.0 | 0.00 | 0.00 | 0.00 | 74 | 1012.7 |
| 20260831202007 | 68 | 22 | 6.0 | 8.0 | 0.00 | 0.00 | 0.00 | 73 | 1012.5 |
| 20260831201005 | 68 | 34 | 0.0 | 0.0 | 0.00 | 0.00 | 0.00 | 73 | 1012.3 |
| 20260831200005 | 68 | 22 | 0.0 | 0.0 | 0.00 | 0.00 | 0.00 | 73 | 1012.2 |
| 20260831194005 | 69 | 22 | 1.0 | 8.0 | 0.00 | 0.00 | 0.00 | 70 | 1012.0 |
| 20260831193005 | 70 | 30 | 1.0 | 10.0 | 0.00 | 0.00 | 0.00 | 69 | 1011.8 |
| 20260831191005 | 72 | 22 | 5.0 | 12.0 | 0.00 | 0.00 | 0.00 | 65 | 1011.7 |
| 20260831190006 | 73 | 57 | 3.0 | 10.0 | 0.00 | 0.00 | 0.00 | 62 | 1011.5 |
| 20260831185005 | 74 | 25 | 6.0 | 10.0 | 0.00 | 0.00 | 0.00 | 59 | 1011.5 |
| 20260831184005 | 75 | 30 | 4.0 | 13.0 | 0.00 | 0.00 | 0.00 | 56 | 1011.5 |
| 20260831183005 | 76 | 37 | 8.0 | 10.0 | 0.00 | 0.00 | 0.00 | 53 | 1011.4 |
| 20260831181005 | 78 | 14 | 7.0 | 10.0 | 0.00 | 0.00 | 0.00 | 49 | 1011.3 |
| 20260831180005 | 78 | 3 | 9.0 | 13.0 | 0.00 | 0.00 | 0.00 | 49 | 1011.2 |
| 20260831175005 | 78 | 10 | 9.0 | 15.0 | 0.00 | 0.00 | 0.00 | 49 | 1011.2 |
| 20260831174005 | 79 | 339 | 9.0 | 14.0 | 0.00 | 0.00 | 0.00 | 50 | 1011.2 |
| 20260831173005 | 79 | 359 | 9.0 | 15.0 | 0.00 | 0.00 | 0.00 | 50 | 1011.2 |
| 20260831172005 | 80 | 333 | 4.0 | 15.0 | 0.00 | 0.00 | 0.00 | 50 | 1011.1 |
| 20260831171005 | 80 | 33 | 9.0 | 15.0 | 0.00 | 0.00 | 0.00 | 50 | 1011.1 |
| 20260831170005 | 80 | 3 | 11.0 | 15.0 | 0.00 | 0.00 | 0.00 | 50 | 1011.2 |
| 20260831165154 | 81 | 355 | 12.0 | 16.0 | 0.00 | 0.00 | 0.00 | 50 | 1011.2 |
| 20260831164005 | 81 | 290 | 10.0 | 15.0 | 0.00 | 0.00 | 0.00 | 48 | 1011.2 |
| 20260831162004 | 83 | 15 | 8.0 | 16.0 | 0.00 | 0.00 | 0.00 | 45 | 1011.2 |
| 20260831160005 | 83 | 21 | 12.0 | 15.0 | 0.00 | 0.00 | 0.00 | 44 | 1011.1 |
| 20260831154005 | 84 | 33 | 10.0 | 15.0 | 0.00 | 0.00 | 0.00 | 43 | 1011.2 |
| 20260831153005 | 85 | 31 | 9.0 | 15.0 | 0.00 | 0.00 | 0.00 | 40 | 1011.2 |
| 20260831151005 | 85 | 34 | 9.0 | 13.0 | 0.00 | 0.00 | 0.00 | 41 | 1011.3 |
| 20260831150006 | 85 | 2 | 9.0 | 14.0 | 0.00 | 0.00 | 0.00 | 41 | 1011.4 |
| 20260831145005 | 85 | 351 | 7.0 | 14.0 | 0.00 | 0.00 | 0.00 | 40 | 1011.5 |
| 20260831144005 | 85 | 356 | 10.0 | 14.0 | 0.00 | 0.00 | 0.00 | 37 | 1011.5 |
| 20260831143006 | 86 | 4 | 10.0 | 14.0 | 0.00 | 0.00 | 0.00 | 36 | 1011.6 |
| 20260831141005 | 86 | 0 | 9.0 | 14.0 | 0.00 | 0.00 | 0.00 | 33 | 1011.6 |
| 20260831140004 | 87 | 357 | 7.0 | 12.0 | 0.00 | 0.00 | 0.00 | 33 | 1011.7 |
| 20260831135005 | 86 | 12 | 10.0 | 13.0 | 0.00 | 0.00 | 0.00 | 33 | 1011.8 |
| 20260831133004 | 85 | 22 | 8.0 | 13.0 | 0.00 | 0.00 | 0.00 | 35 | 1011.9 |
| 20260831132005 | 85 | 8 | 9.0 | 14.0 | 0.00 | 0.00 | 0.00 | 36 | 1012.0 |
| 20260831131005 | 85 | 288 | 9.0 | 13.0 | 0.00 | 0.00 | 0.00 | 38 | 1012.2 |
| 20260831130004 | 85 | 333 | 7.0 | 12.0 | 0.00 | 0.00 | 0.00 | 37 | 1012.3 |
| 20260831125005 | 85 | 342 | 11.0 | 13.0 | 0.00 | 0.00 | 0.00 | 34 | 1012.3 |
| 20260831124005 | 84 | 49 | 10.0 | 16.0 | 0.00 | 0.00 | 0.00 | 34 | 1012.3 |
| 20260831123005 | 84 | 16 | 5.0 | 13.0 | 0.00 | 0.00 | 0.00 | 34 | 1012.3 |
| 20260831122005 | 83 | 332 | 9.0 | 14.0 | 0.00 | 0.00 | 0.00 | 36 | 1012.6 |
| 20260831121005 | 83 | 330 | 9.0 | 15.0 | 0.00 | 0.00 | 0.00 | 36 | 1012.7 |
| 20260831120004 | 83 | 348 | 7.0 | 13.0 | 0.00 | 0.00 | 0.00 | 34 | 1012.8 |
| 20260831114005 | 81 | 44 | 12.0 | 14.0 | 0.00 | 0.00 | 0.00 | 35 | 1013.1 |
| 20260831112005 | 81 | 356 | 10.0 | 16.0 | 0.00 | 0.00 | 0.00 | 39 | 1013.2 |
| 20260831111004 | 81 | 357 | 10.0 | 16.0 | 0.00 | 0.00 | 0.00 | 40 | 1013.2 |
| 20260831105004 | 80 | 0 | 12.0 | 16.0 | 0.00 | 0.00 | 0.00 | 43 | 1013.3 |
| 20260831101005 | 78 | 6 | 10.0 | 13.0 | 0.00 | 0.00 | 0.00 | 46 | 1013.4 |
| 20260831100005 | 77 | 22 | 10.0 | 16.0 | 0.00 | 0.00 | 0.00 | 47 | 1013.3 |
| 20260831095005 | 77 | 31 | 11.0 | 16.0 | 0.00 | 0.00 | 0.00 | 48 | 1013.2 |
| 20260831094004 | 76 | 11 | 10.0 | 14.0 | 0.00 | 0.00 | 0.00 | 49 | 1013.2 |
| 20260831093005 | 76 | 53 | 9.0 | 14.0 | 0.00 | 0.00 | 0.00 | 51 | 1013.2 |
| 20260831092005 | 75 | 342 | 10.0 | 14.0 | 0.00 | 0.00 | 0.00 | 53 | 1013.4 |
| 20260831090005 | 74 | 44 | 9.0 | 13.0 | 0.00 | 0.00 | 0.00 | 57 | 1013.4 |
| 20260831085004 | 73 | 45 | 10.0 | 13.0 | 0.00 | 0.00 | 0.00 | 59 | 1013.4 |
| 20260831084005 | 72 | 349 | 10.0 | 15.0 | 0.00 | 0.00 | 0.00 | 63 | 1013.4 |
| 20260831083005 | 72 | 339 | 9.0 | 15.0 | 0.00 | 0.00 | 0.00 | 65 | 1013.4 |
| 20260831082004 | 71 | 26 | 8.0 | 14.0 | 0.00 | 0.00 | 0.00 | 68 | 1013.3 |
| 20260831081005 | 70 | 354 | 8.0 | 13.0 | 0.00 | 0.00 | 0.00 | 70 | 1013.4 |
| 20260831080004 | 70 | 348 | 7.0 | 12.0 | 0.00 | 0.00 | 0.00 | 74 | 1013.4 |
| 20260831075004 | 69 | 45 | 8.0 | 12.0 | 0.00 | 0.00 | 0.00 | 77 | 1013.3 |
| 20260831074005 | 68 | 38 | 6.0 | 10.0 | 0.00 | 0.00 | 0.00 | 79 | 1013.3 |
| 20260831073004 | 67 | 22 | 7.0 | 9.0 | 0.00 | 0.00 | 0.00 | 82 | 1013.1 |
| 20260831072005 | 67 | 45 | 6.0 | 8.0 | 0.00 | 0.00 | 0.00 | 84 | 1013.0 |
| 20260831071005 | 66 | 25 | 5.0 | 8.0 | 0.00 | 0.00 | 0.00 | 86 | 1012.8 |
| 20260831064006 | 62 | 22 | 4.0 | 7.0 | 0.00 | 0.00 | 0.00 | 99 | 1012.7 |
| 20260831063006 | 62 | 49 | 4.0 | 7.0 | 0.00 | 0.00 | 0.00 | 99 | 1012.8 |
| 20260831062005 | 62 | 55 | 6.0 | 10.0 | 0.00 | 0.00 | 0.00 | 99 | 1012.8 |
| 20260831061007 | 62 | 35 | 6.0 | 8.0 | 0.00 | 0.00 | 0.00 | 99 | 1012.6 |
| 20260831060007 | 62 | 45 | 6.0 | 6.0 | 0.00 | 0.00 | 0.00 | 99 | 1012.5 |
| 20260831055008 | 62 | 22 | 5.0 | 8.0 | 0.00 | 0.00 | 0.00 | 99 | 1012.6 |
| 20260831054007 | 63 | 48 | 3.0 | 9.0 | 0.00 | 0.00 | 0.00 | 99 | 1012.6 |
| 20260831053006 | 63 | 43 | 6.0 | 8.0 | 0.00 | 0.00 | 0.00 | 99 | 1012.8 |
| 20260831052006 | 63 | 34 | 6.0 | 8.0 | 0.00 | 0.00 | 0.00 | 99 | 1012.6 |
| 20260831045006 | 63 | 22 | 4.0 | 7.0 | 0.00 | 0.00 | 0.00 | 99 | 1012.6 |
| 20260831044006 | 63 | 24 | 6.0 | 8.0 | 0.00 | 0.00 | 0.00 | 99 | 1012.6 |
| 20260831043006 | 63 | 66 | 5.0 | 8.0 | 0.00 | 0.00 | 0.00 | 99 | 1012.7 |
| 20260831042005 | 63 | 41 | 5.0 | 7.0 | 0.00 | 0.00 | 0.00 | 98 | 1012.6 |
| 20260831041006 | 63 | 61 | 6.0 | 7.0 | 0.00 | 0.00 | 0.00 | 98 | 1012.7 |